Flag for Ukraine Weather past 2 weeks in Kyiv, Ukraine

Now
46 °F

Light rain. Overcast.


Feels Like: 46 °F
Forecast: 45 / 62 °F
Wind: 1 mph from Northwest

Location: Kyiv


UV Index: 0 (Low)

Visibility: 3 mi


Pressure: 30.15 "Hg

Humidity: 93%

Dew point: 45 °F

Location of KyivLocation

Historic Weather in Kyiv

°F

Kyiv temperature yesterday

Maximum temperature yesterday: 50 °F (at 11:00 AM)
Minimum temperature yesterday: 45 °F (at 7:00 AM)
Average temperature yesterday: 47 °F

Past Weeks' High & Low Weather Summary

 TemperatureHumidityPressure
High64 °F (Apr 9, 12:00 PM)100% (Apr 8, 9:30 PM)30.33 "Hg (Apr 8, 9:30 PM)
Low25 °F (Apr 6, 4:00 AM)19% (Apr 6, 3:00 PM)29.68 "Hg (Apr 4, 5:00 AM)
Average44 °F67%29.98 "Hg
* Reported Apr 1 9:00 PM — Apr 16 9:30 PM, Kyiv, Weather by CustomWeather, © 2014

Note: Actual official high and low records may vary slightly from our data, if they occured in-between our weather recording intervals... More about our weather records

Advertising

Historic Weather Conditions — Data for Previous 24 hours

 ConditionsComfort  
Time TempWeatherWind HumidityBarometerVisibility
9:30 PM
Apr 16
46 °FSprinkles. Partly cloudy.1 mph93%30.15 "Hg2 mi
9:00 PM46 °FSprinkles. Partly cloudy.No wind93%30.15 "Hg3 mi
8:30 PM46 °FSprinkles. Broken clouds.3 mph93%30.15 "Hg5 mi
8:00 PM46 °FSprinkles. Broken clouds.3 mph93%30.15 "Hg4 mi
7:30 PM46 °FSprinkles. Broken clouds.3 mph93%30.12 "Hg5 mi
7:00 PM46 °FSprinkles. Broken clouds.No wind93%30.12 "HgN/A
6:30 PM46 °FPartly sunny.3 mph93%30.12 "HgN/A
6:00 PM46 °FSprinkles. Broken clouds.3 mph93%30.09 "HgN/A
5:30 PM46 °FSprinkles. Broken clouds.3 mph93%30.12 "Hg2 mi
5:00 PM50 °FSprinkles. Broken clouds.1 mph76%30.09 "HgN/A
4:00 PM50 °FSprinkles. Broken clouds.6 mph71%30.09 "Hg6 mi
3:30 PM52 °FSprinkles. Broken clouds.3 mph67%30.09 "HgN/A
3:00 PM52 °FSprinkles. Broken clouds.3 mph62%30.07 "HgN/A
2:30 PM52 °FPartly sunny.No wind62%30.07 "HgN/A
2:00 PM54 °FPartly sunny.1 mph58%30.07 "HgN/A
1:30 PM54 °FPartly sunny.3 mph67%30.07 "HgN/A
1:00 PM52 °FPartly sunny.1 mph67%30.07 "HgN/A
12:30 PM50 °FPartly sunny.3 mph71%30.04 "HgN/A
12:00 PM52 °FPartly sunny.3 mph67%30.04 "HgN/A
11:30 AM52 °FPartly sunny.1 mph72%30.04 "HgN/A
11:00 AM50 °FBroken clouds.No wind71%30.04 "HgN/A
10:30 AM48 °FBroken clouds.1 mph82%30.04 "HgN/A
10:00 AM48 °FBroken clouds.No wind82%30.01 "HgN/A
9:30 AM46 °FPartly sunny.No wind87%30.01 "HgN/A
9:00 AM45 °FPartly sunny.3 mph87%30.01 "HgN/A
8:30 AM45 °FSunny.No wind93%29.98 "Hg10 mi
8:00 AM45 °FPartly sunny.No wind100%29.98 "Hg4 mi
7:30 AM43 °FFog.1 mph100%29.98 "Hg2 mi
7:00 AM41 °FFog.3 mph100%29.98 "Hg1 mi
6:00 AM41 °FFog.1 mph100%29.95 "Hg1 mi
5:30 AM43 °FFog.3 mph100%29.95 "Hg2 mi
5:00 AM43 °FFog.No wind100%29.95 "Hg3 mi
4:30 AM43 °FLight rain. Fog.1 mph100%29.95 "Hg3 mi
4:00 AM43 °FLight rain. Fog.1 mph100%29.92 "Hg3 mi
3:30 AM43 °FSprinkles. Fog.1 mph100%29.92 "Hg2 mi
2:00 AM43 °FLight rain. Mostly cloudy.No wind100%29.92 "Hg4 mi
1:30 AM45 °FLight rain. Fog.1 mph93%29.92 "Hg3 mi
1:00 AM45 °FMostly cloudy.3 mph93%29.92 "Hg4 mi
12:30 AM45 °FMostly cloudy.3 mph93%29.92 "Hg6 mi
11:30 PM
Apr 15
45 °FMostly cloudy.1 mph93%29.92 "Hg5 mi
11:00 PM45 °FLight rain. Mostly cloudy.1 mph93%29.89 "Hg4 mi
10:30 PM45 °FLight rain. Mostly cloudy.1 mph93%29.89 "Hg4 mi
10:00 PM45 °FMostly cloudy.1 mph93%29.89 "HgN/A
Weather by CustomWeather, © 2014

See weather overview